Time,TemperatureF,DewpointF,PressureIn,WindDirection,WindDirectionDegrees,WindSpeedMPH,WindSpeedGustMPH,Humidity,HourlyPrecipIn,Conditions,Clouds,dailyrainin,SoftwareType,DateUTC
2013-11-14 00:23:00,31.0,18.0,30.15,SSW,206,4.0,-999.0,58,-99.99,,,-99.99,,2013-11-14 05:23:00,
2013-11-14 00:53:00,31.0,18.0,30.14,WSW,245,6.0,-999.0,59,-99.99,,,-99.99,,2013-11-14 05:53:00,
2013-11-14 01:12:00,31.0,18.0,30.13,SW,216,2.0,-999.0,59,-99.99,,,-99.99,,2013-11-14 06:12:00,
2013-11-14 01:22:00,31.0,18.0,30.13,SW,216,2.0,-999.0,59,-99.99,,,-99.99,,2013-11-14 06:22:00,
2013-11-14 01:32:00,31.0,18.0,30.13,SW,216,2.0,-999.0,59,-99.99,,,-99.99,,2013-11-14 06:32:00,
2013-11-14 01:52:00,31.0,18.0,30.11,WSW,252,4.0,-999.0,58,-99.99,,,-99.99,,2013-11-14 06:52:00,
2013-11-14 02:22:00,31.0,18.0,30.11,South,191,10.0,-999.0,58,-99.99,,,-99.99,,2013-11-14 07:22:00,
2013-11-14 02:32:00,31.0,18.0,30.11,South,191,10.0,-999.0,58,-99.99,,,-99.99,,2013-11-14 07:32:00,
2013-11-14 02:42:00,31.0,18.0,30.11,South,191,10.0,-999.0,58,-99.99,,,-99.99,,2013-11-14 07:42:00,
2013-11-14 02:53:00,31.0,18.0,30.11,South,191,10.0,-999.0,58,-99.99,,,-99.99,,2013-11-14 07:53:00,
2013-11-14 03:12:00,31.0,18.0,30.10,SW,225,3.0,-999.0,59,-99.99,,,-99.99,,2013-11-14 08:12:00,
2013-11-14 03:22:00,31.0,18.0,30.10,SW,225,3.0,-999.0,59,-99.99,,,-99.99,,2013-11-14 08:22:00,
2013-11-14 03:53:00,31.0,19.0,30.08,SSW,199,2.0,-999.0,60,-99.99,,,-99.99,,2013-11-14 08:53:00,
2013-11-14 04:02:00,31.0,19.0,30.08,SSW,199,2.0,-999.0,60,-99.99,,,-99.99,,2013-11-14 09:02:00,
2013-11-14 04:22:00,32.0,20.0,30.08,SW,221,3.0,-999.0,60,-99.99,,,-99.99,,2013-11-14 09:22:00,
2013-11-14 04:43:00,32.0,20.0,30.08,West,265,0.0,-999.0,60,-99.99,,,-99.99,,2013-11-14 09:43:00,
2013-11-14 04:53:00,32.0,20.0,30.08,West,265,0.0,-999.0,60,-99.99,,,-99.99,,2013-11-14 09:53:00,
2013-11-14 05:23:00,32.0,20.0,30.06,South,182,0.0,-999.0,61,-99.99,,,-99.99,,2013-11-14 10:23:00,
2013-11-14 05:42:00,32.0,20.0,30.06,SW,223,2.0,-999.0,61,-99.99,,,-99.99,,2013-11-14 10:42:00,
2013-11-14 05:52:00,32.0,20.0,30.06,WNW,285,1.0,-999.0,61,-99.99,,,-99.99,,2013-11-14 10:52:00,
2013-11-14 06:22:00,32.0,20.0,30.06,WSW,240,2.0,-999.0,61,-99.99,,,-99.99,,2013-11-14 11:22:00,
2013-11-14 06:42:00,33.0,21.0,30.06,WSW,248,7.0,-999.0,60,-99.99,,,-99.99,,2013-11-14 11:42:00,
2013-11-14 06:52:00,33.0,21.0,30.06,WSW,248,7.0,-999.0,60,-99.99,,,-99.99,,2013-11-14 11:52:00,
2013-11-14 07:21:00,34.0,21.0,30.07,SW,235,2.0,-999.0,58,-99.99,,,-99.99,,2013-11-14 12:21:00,
2013-11-14 07:52:00,35.0,21.0,30.08,SW,234,5.0,-999.0,57,-99.99,,,-99.99,,2013-11-14 12:52:00,
2013-11-14 08:22:00,35.0,21.0,30.08,WSW,252,0.0,-999.0,56,-99.99,,,-99.99,,2013-11-14 13:22:00,
2013-11-14 08:42:00,36.0,21.0,30.07,WSW,253,1.0,-999.0,54,-99.99,,,-99.99,,2013-11-14 13:42:00,
2013-11-14 08:52:00,36.0,21.0,30.07,WSW,253,1.0,-999.0,54,-99.99,,,-99.99,,2013-11-14 13:52:00,
2013-11-14 09:22:00,39.0,21.0,30.06,South,184,3.0,-999.0,48,-99.99,,,-99.99,,2013-11-14 14:22:00,
2013-11-14 09:42:00,40.0,21.0,30.06,WSW,246,2.0,-999.0,46,-99.99,,,-99.99,,2013-11-14 14:42:00,
2013-11-14 09:52:00,40.0,21.0,30.06,WSW,246,2.0,-999.0,46,-99.99,,,-99.99,,2013-11-14 14:52:00,
2013-11-14 10:22:00,42.0,21.0,30.06,SSW,211,7.0,-999.0,42,-99.99,,,-99.99,,2013-11-14 15:22:00,
2013-11-14 10:33:00,42.0,21.0,30.06,SSW,211,7.0,-999.0,42,-99.99,,,-99.99,,2013-11-14 15:33:00,
2013-11-14 10:43:00,42.0,21.0,30.06,SSW,211,7.0,-999.0,42,-99.99,,,-99.99,,2013-11-14 15:43:00,
2013-11-14 10:53:00,43.0,22.0,30.06,SW,223,9.0,-999.0,42,-99.99,,,-99.99,,2013-11-14 15:53:00,
2013-11-14 11:03:00,43.0,22.0,30.06,SW,223,9.0,-999.0,42,-99.99,,,-99.99,,2013-11-14 16:03:00,
2013-11-14 11:23:00,45.0,22.0,30.05,NE,54,2.0,-999.0,39,-99.99,,,-99.99,,2013-11-14 16:23:00,
2013-11-14 11:42:00,44.0,21.0,30.05,SW,230,3.0,-999.0,39,-99.99,,,-99.99,,2013-11-14 16:42:00,
2013-11-14 11:52:00,44.0,21.0,30.05,SW,230,3.0,-999.0,39,-99.99,,,-99.99,,2013-11-14 16:52:00,
2013-11-14 12:13:00,46.0,21.0,30.03,NW,317,2.0,-999.0,37,-99.99,,,-99.99,,2013-11-14 17:13:00,
2013-11-14 12:23:00,46.0,21.0,30.03,NW,317,2.0,-999.0,37,-99.99,,,-99.99,,2013-11-14 17:23:00,
2013-11-14 12:52:00,49.0,23.0,30.02,NW,314,5.0,-999.0,35,-99.99,,,-99.99,,2013-11-14 17:52:00,
2013-11-14 13:02:00,49.0,23.0,30.02,NW,314,5.0,-999.0,35,-99.99,,,-99.99,,2013-11-14 18:02:00,
2013-11-14 13:22:00,49.0,22.0,30.01,SW,218,5.0,-999.0,34,-99.99,,,-99.99,,2013-11-14 18:22:00,
2013-11-14 13:52:00,50.0,23.0,30.01,SW,222,1.0,-999.0,34,-99.99,,,-99.99,,2013-11-14 18:52:00,
2013-11-14 14:21:00,50.0,23.0,30.02,WSW,243,1.0,-999.0,34,-99.99,,,-99.99,,2013-11-14 19:21:00,
2013-11-14 14:42:00,50.0,23.0,30.01,SW,219,3.0,-999.0,35,-99.99,,,-99.99,,2013-11-14 19:42:00,
2013-11-14 14:52:00,50.0,23.0,30.01,SW,219,3.0,-999.0,35,-99.99,,,-99.99,,2013-11-14 19:52:00,
2013-11-14 15:22:00,51.0,24.0,30.02,WSW,249,4.0,-999.0,35,-99.99,,,-99.99,,2013-11-14 20:22:00,
2013-11-14 15:52:00,50.0,25.0,30.03,SW,227,0.0,-999.0,37,-99.99,,,-99.99,,2013-11-14 20:52:00,
2013-11-14 16:11:00,50.0,26.0,30.03,SW,235,0.0,-999.0,39,-99.99,,,-99.99,,2013-11-14 21:11:00,
2013-11-14 16:22:00,50.0,26.0,30.03,SW,235,0.0,-999.0,39,-99.99,,,-99.99,,2013-11-14 21:22:00,
2013-11-14 16:53:00,48.0,25.0,30.04,SW,215,3.0,-999.0,41,-99.99,,,-99.99,,2013-11-14 21:53:00,
2013-11-14 17:13:00,48.0,26.0,30.05,SSW,196,0.0,-999.0,42,-99.99,,,-99.99,,2013-11-14 22:13:00,
2013-11-14 17:23:00,48.0,26.0,30.05,SSW,196,0.0,-999.0,42,-99.99,,,-99.99,,2013-11-14 22:23:00,
2013-11-14 17:53:00,46.0,26.0,30.06,SW,236,0.0,-999.0,45,-99.99,,,-99.99,,2013-11-14 22:53:00,
2013-11-14 18:12:00,46.0,26.0,30.06,SW,236,1.0,-999.0,45,-99.99,,,-99.99,,2013-11-14 23:12:00,
2013-11-14 18:22:00,46.0,26.0,30.06,SW,236,1.0,-999.0,45,-99.99,,,-99.99,,2013-11-14 23:22:00,
2013-11-14 18:43:00,44.0,26.0,30.08,SW,236,0.0,-999.0,49,-99.99,,,-99.99,,2013-11-14 23:43:00,
2013-11-14 18:52:00,44.0,26.0,30.08,SW,236,0.0,-999.0,49,-99.99,,,-99.99,,2013-11-14 23:52:00,
2013-11-14 19:11:00,42.0,26.0,30.08,SW,236,0.0,-999.0,52,-99.99,,,-99.99,,2013-11-15 00:11:00,
2013-11-14 19:22:00,42.0,26.0,30.08,SW,236,0.0,-999.0,52,-99.99,,,-99.99,,2013-11-15 00:22:00,
2013-11-14 19:52:00,44.0,26.0,30.08,SSW,212,0.0,-999.0,48,-99.99,,,-99.99,,2013-11-15 00:52:00,
2013-11-14 20:22:00,44.0,25.0,30.08,SW,221,2.0,-999.0,46,-99.99,,,-99.99,,2013-11-15 01:22:00,
2013-11-14 20:42:00,44.0,24.0,30.09,WSW,244,2.0,-999.0,45,-99.99,,,-99.99,,2013-11-15 01:42:00,
2013-11-14 20:52:00,44.0,24.0,30.09,WSW,244,2.0,-999.0,45,-99.99,,,-99.99,,2013-11-15 01:52:00,
2013-11-14 21:22:00,43.0,24.0,30.10,SW,232,0.0,-999.0,46,-99.99,,,-99.99,,2013-11-15 02:22:00,
2013-11-14 21:42:00,41.0,23.0,30.10,SW,232,0.0,-999.0,48,-99.99,,,-99.99,,2013-11-15 02:42:00,
2013-11-14 21:52:00,41.0,23.0,30.10,SW,232,0.0,-999.0,48,-99.99,,,-99.99,,2013-11-15 02:52:00,
2013-11-14 22:22:00,41.0,24.0,30.09,SSW,205,2.0,-999.0,51,-99.99,,,-99.99,,2013-11-15 03:22:00,
2013-11-14 22:44:00,42.0,25.0,30.10,SSW,193,0.0,-999.0,51,-99.99,,,-99.99,,2013-11-15 03:44:00,
2013-11-14 22:54:00,42.0,25.0,30.10,SSW,193,0.0,-999.0,51,-99.99,,,-99.99,,2013-11-15 03:54:00,
2013-11-14 23:24:00,43.0,24.0,30.10,SW,219,3.0,-999.0,46,-99.99,,,-99.99,,2013-11-15 04:24:00,
2013-11-14 23:43:00,43.0,23.0,30.10,SSW,207,1.0,-999.0,45,-99.99,,,-99.99,,2013-11-15 04:43:00,
2013-11-14 23:53:00,43.0,23.0,30.10,SSW,207,1.0,-999.0,45,-99.99,,,-99.99,,2013-11-15 04:53:00,